Location: Tierra Monte Subdivision
(35.2092°N, 106.4864°W)
Time: 23:27:14
(UTC+00:00)

Meteor 1-24 Rocket - Pass Details

Date: 30 March 2020
Orbit: 790 x 927 km, 81.3° (Epoch: 02 June)

Event Time Altitude Azimuth Distance (km) Brightness Sun altitude
Rises 02:16:47 0° 355° (N) 3,393 7.1 -11.2°
Reaches altitude 10° 02:19:16 10° 359° (N) 2,435 6.3 -11.7°
Maximum altitude 02:24:42 63° 80° (E) 903 3.6 -12.7°
Drops below altitude 10° 02:29:57 10° 161° (SSE) 2,358 5.7 -13.8°
Sets 02:32:19 0° 165° (SSE) 3,276 6.5 -14.2°
